Location: Muenchen
(48.1800°N, 11.5800°E)
Time: 11:14:28
(UTC+01:00)

ISS - All Passes

Search period start: 25 January 2015 00:00
Search period end: 04 February 2015 00:00
Orbit: 402 x 410 km, 51.6° (Epoch: 25 January)

Date Brightness Start Highest point End Pass type
(mag) Time Alt. Az. Time Alt. Az. Time Alt. Az.
25 Jan - 00:39:44 10° SW 00:42:57 52° SSE 00:46:11 10° ENE night (unlit)
25 Jan - 02:16:16 10° W 02:19:30 50° N 02:22:46 10° ENE night (unlit)
25 Jan - 03:53:08 10° WNW 03:56:22 49° N 03:59:36 10° E visible
25 Jan - 05:29:42 10° WNW 05:32:58 59° SSW 05:36:14 10° SE visible
25 Jan - 07:07:49 10° WSW 07:08:58 11° SW 07:10:01 10° SSW visible
25 Jan - 23:48:18 10° SSW 23:51:17 32° SE 23:54:18 10° E night (unlit)
26 Jan - 01:24:23 10° W 01:27:40 63° NNW 01:30:58 10° ENE night (unlit)
26 Jan - 03:01:18 10° WNW 03:04:30 44° N 03:07:42 10° ENE night (unlit)
26 Jan - 04:37:54 10° WNW 04:41:14 88° SSW 04:44:33 10° ESE visible
26 Jan - 06:14:58 10° W 06:17:24 19° SW 06:19:47 10° S visible
26 Jan - 22:57:10 10° S 22:59:38 20° SE 23:02:11 10° E night (unlit)
27 Jan - 00:32:33 10° WSW 00:35:51 87° NNW 00:39:11 10° ENE night (unlit)
27 Jan - 02:09:24 10° WNW 02:12:36 43° N 02:15:47 10° ENE night (unlit)
27 Jan - 03:46:06 10° WNW 03:49:24 67° NNE 03:52:43 10° ESE night (unlit)
27 Jan - 05:22:49 10° W 05:25:47 30° SW 05:28:43 10° SSE visible
27 Jan - 22:06:40 10° SSE 22:08:03 12° SE 22:09:30 10° ESE night (unlit)
27 Jan - 23:40:48 10° SW 23:44:03 63° SSE 23:47:20 10° ENE night (unlit)
28 Jan - 01:17:28 10° W 01:20:41 47° N 01:23:54 10° ENE night (unlit)
28 Jan - 02:54:16 10° WNW 02:57:32 52° NNE 03:00:47 10° E night (unlit)
28 Jan - 04:30:51 10° WNW 04:34:04 48° SSW 04:37:16 10° SE visible
28 Jan - 22:49:12 10° SW 22:52:17 39° SSE 22:55:24 10° ENE night (unlit)
29 Jan - 00:25:29 10° W 00:28:45 57° NNW 00:32:02 10° ENE night (unlit)
29 Jan - 02:02:23 10° WNW 02:05:36 45° N 02:08:48 10° E night (unlit)
29 Jan - 03:38:57 10° WNW 03:42:16 76° SSW 03:45:34 10° ESE night (unlit)
29 Jan - 05:16:18 10° W 05:18:22 15° SW 05:20:22 10° S visible
29 Jan - 21:57:50 10° SSW 22:00:34 24° SE 22:03:19 10° E night (unlit)
29 Jan - 23:33:32 10° WSW 23:36:50 76° NNW 23:40:09 10° ENE night (unlit)
30 Jan - 01:10:26 10° WNW 01:13:37 43° N 01:16:48 10° ENE night (unlit)
30 Jan - 02:47:05 10° WNW 02:50:23 75° NNE 02:53:42 10° ESE night (unlit)
30 Jan - 04:23:54 10° W 04:26:41 25° SW 04:29:26 10° SSE night (unlit)
30 Jan - 21:06:55 10° S 21:08:52 15° SE 21:10:52 10° E night (unlit)
30 Jan - 22:41:40 10° WSW 22:44:57 75° SSE 22:48:15 10° ENE night (unlit)
31 Jan - 00:18:25 10° W 00:21:37 45° N 00:24:49 10° ENE night (unlit)
31 Jan - 01:55:11 10° WNW 01:58:27 57° NNE 02:01:43 10° E night (unlit)
31 Jan - 03:31:47 10° WNW 03:34:54 40° SSW 03:38:01 10° SE night (unlit)
31 Jan - 21:49:55 10° SW 21:53:05 47° SSE 21:56:17 10° ENE night (unlit)
31 Jan - 23:26:22 10° W 23:29:36 52° NNW 23:32:51 10° ENE night (unlit)
01 Feb - 01:03:14 10° WNW 01:06:27 47° N 01:09:40 10° E night (unlit)
01 Feb - 02:39:47 10° WNW 02:43:04 64° SSW 02:46:20 10° SE night (unlit)
01 Feb - 04:17:33 10° WSW 04:19:05 12° SW 04:20:32 10° SSW night (unlit)
01 Feb - 20:58:22 10° SSW 21:01:15 29° SE 21:04:11 10° E night (unlit)
01 Feb - 22:34:20 10° WSW 22:37:36 67° NNW 22:40:54 10° ENE night (unlit)
02 Feb - 00:11:13 10° WNW 00:14:24 43° N 00:17:35 10° ENE night (unlit)
02 Feb - 01:47:50 10° WNW 01:51:08 86° NNE 01:54:27 10° ESE night (unlit)
02 Feb - 03:24:47 10° W 03:27:21 21° SW 03:29:52 10° S night (unlit)
02 Feb - 20:07:09 10° S 20:09:28 18° SE 20:11:50 10° E night (unlit)
02 Feb - 21:42:20 10° WSW 21:45:37 87° SSE 21:48:56 10° ENE night (unlit)
02 Feb - 23:19:09 10° WNW 23:22:19 44° N 23:25:31 10° ENE night (unlit)
03 Feb - 00:55:51 10° WNW 00:59:08 63° NNE 01:02:25 10° E night (unlit)
03 Feb - 02:32:30 10° W 02:35:32 33° SW 02:38:32 10° SSE night (unlit)
03 Feb - 19:16:52 10° SSE 19:17:42 11° SE 19:18:39 10° ESE visible
03 Feb - 20:50:26 10° SW 20:53:40 57° SSE 20:56:55 10° ENE night (unlit)
03 Feb - 22:27:02 10° W 22:30:15 49° N 22:33:28 10° ENE night (unlit)
